Date,TemperatureHighF,TemperatureAvgF,TemperatureLowF,DewpointHighF,DewpointAvgF,DewpointLowF,HumidityHigh,HumidityAvg,HumidityLow,PressureMaxIn,PressureMinIn,WindSpeedMaxMPH,WindSpeedAvgMPH,GustSpeedMaxMPH,PrecipitationSumIn
2013-2-1,66.9,47.9,33.3,51.6,41.4,32.2,99,81,48,30.24,30.14,4,1,6,0.00
2013-2-2,65.3,48.9,39.0,52.3,44.0,38.6,99,85,55,30.31,30.21,3,0,5,0.00
2013-2-3,65.1,48.7,37.2,50.8,43.3,36.2,99,84,50,30.27,30.14,4,0,5,0.04
2013-2-4,66.7,48.6,36.3,51.1,44.0,35.0,99,86,53,30.19,30.06,5,1,7,0.00
2013-2-5,58.8,49.3,39.0,47.2,43.9,37.9,97,83,62,30.18,30.07,5,1,8,0.00
2013-2-6,63.9,46.0,33.4,46.5,39.1,31.9,99,80,45,30.21,30.11,4,1,7,0.00
2013-2-7,58.8,45.2,36.9,49.1,39.4,34.8,98,82,47,30.20,30.01,5,1,8,0.07
2013-2-8,41.9,37.8,32.4,41.4,36.4,29.2,98,95,88,30.02,29.94,2,0,2,0.01
2013-2-9,62.2,41.3,27.5,40.0,29.0,23.8,97,68,24,30.12,30.01,4,1,6,0.00
2013-2-10,62.1,44.0,30.9,40.0,34.5,27.6,92,72,42,30.14,30.02,5,1,8,0.00
2013-2-11,66.4,45.7,30.4,46.6,32.0,25.3,99,66,23,30.23,30.09,6,1,9,0.00
2013-2-12,41.3,41.3,41.3,31.5,31.5,31.5,38,38,38,29.97,29.97,1,1,0,0.00
2013-2-13,45.3,41.5,39.7,40.2,32.8,31.5,94,46,38,30.25,29.97,2,1,2,11.01
2013-2-14,72.1,52.0,36.0,50.6,40.9,34.7,99,71,35,30.26,30.17,6,1,11,0.00
2013-2-15,72.1,57.8,37.6,47.1,42.3,35.9,97,60,35,30.29,30.23,5,1,8,0.00
2013-2-16,71.2,50.4,35.8,51.6,43.3,35.0,99,80,42,30.27,30.07,3,0,5,0.00
2013-2-17,68.5,50.1,36.5,51.6,41.0,35.7,99,77,32,30.07,29.97,6,1,11,0.00
2013-2-18,54.3,45.7,36.0,50.1,40.0,35.2,99,82,60,30.05,29.96,6,1,9,0.00
2013-2-19,50.0,43.0,34.7,45.7,39.2,32.6,98,87,69,29.98,29.75,7,1,12,0.35
2013-2-20,62.8,45.3,32.4,40.5,35.7,30.2,99,74,32,30.08,29.85,6,1,10,0.00
2013-2-21,63.7,44.7,30.7,46.0,34.7,27.5,99,74,26,30.20,30.06,8,1,12,0.00
2013-2-22,67.6,48.5,33.3,45.5,38.5,32.5,99,74,34,30.26,30.18,5,1,8,0.00
2013-2-23,61.7,49.8,37.4,47.9,39.1,30.8,99,71,32,30.27,30.16,7,1,11,0.00
2013-2-24,65.5,45.9,29.1,44.8,28.8,18.8,99,61,17,30.27,30.17,8,1,11,0.00
2013-2-25,66.4,49.2,35.6,45.8,38.3,31.0,95,68,41,30.30,30.17,5,1,8,0.00
2013-2-26,72.0,49.9,32.0,46.2,30.4,18.9,99,59,14,30.24,30.13,5,1,9,0.00
2013-2-27,72.3,52.0,35.6,43.7,37.5,31.4,90,63,24,30.39,30.23,5,1,8,0.00
2013-2-28,73.0,55.7,41.5,53.2,48.2,41.2,99,79,45,30.46,30.38,5,1,9,0.00